Station OCIM2 - 8570283 - Ocean City Inlet, MD Image indicating link to RSS feed of recent meteorological observations for station OCIM2


Conditions at OCIM2 as of
(10:30 am EDT)
1430 GMT on 07/22/2024:
     

Click on the graph icon in the table below to see a time series plot of the last five days of that observation.

5-day plot - Wind Direction Wind Direction (WDIR):SSE ( 160 deg true )
5-day plot - Wind Speed Wind Speed (WSPD): 4.1 kts
5-day plot - Wind Gust Wind Gust (GST): 6.0 kts
5-day plot - Atmospheric Pressure Atmospheric Pressure (PRES):30.03 in
5-day plot - Air Temperature Air Temperature (ATMP): 74.8 °F
5-day plot - Water Temperature Water Temperature (WTMP): 70.2 °F
5-day plot - Wind Speed at 10 Meters Wind Speed at 10 meters (WSPD10M): 3.9 kts
5-day plot - Wind Speed at 20 Meters Wind Speed at 20 meters (WSPD20M): 5.8 kts
5-day plot -  Wind Speed, Wind Gust and Atmospheric Pressure Combined plot of Wind Speed, Gust, and Air Pressure
NOS Water Level Observation Network Water Level
Previous observations
TIME
(EDT)
5-day plot - Wind Direction
WDIR
 
5-day plot - Wind Speed
WSPD
kts
5-day plot - Wind Gust
GST
kts
5-day plot - Wave Height
WVHT
ft
5-day plot - Dominant Wave Period
DPD
sec
5-day plot - Average Wave Period
APD
sec
5-day plot - Mean Wave Direction
MWD
 
5-day plot - Atmospheric Pressure
PRES
in
5-day plot - Pressure Tendency
PTDY
in
5-day plot - Air Temperature
ATMP
°F
5-day plot - Water Temperature
WTMP
°F
5-day plot - Dew Point
DEWP
°F
5-day plot - Salinity
SAL
psu
5-day plot - Visibility
VIS
nmi
5-day plot - Tide (above MLLW)
TIDE
ft
2024-07-22 10:24 amSSE 6.0 8.0----30.03- 74.7 70.2----
2024-07-22 10:18 amSSE 5.1 8.0----30.03- 74.5 70.2----
2024-07-22 10:12 amSSE 5.1 8.0----30.03- 74.5 70.2----
2024-07-22 10:06 amSSE 5.1 8.0----30.03- 74.5 70.2----
2024-07-22 10:00 am SE 4.1 6.0----30.03+0.01 74.5 70.2----
2024-07-22 09:54 amSSE 4.1 6.0----30.03- 74.3 70.2----
2024-07-22 09:48 amSSE 5.1 7.0----30.03- 74.3 70.3----
2024-07-22 09:42 amSSE 5.1 6.0----30.03- 74.1 70.3----
2024-07-22 09:36 am S 4.1 5.1----30.03- 74.1 70.3----
2024-07-22 09:30 amSSE 4.1 5.1----30.03- 74.1 70.2----
2024-07-22 09:24 amSSE 4.1 7.0----30.03- 73.9 70.3----
2024-07-22 09:18 amSSE 4.1 7.0----30.04- 73.8 70.3----
2024-07-22 09:12 amSSE 4.1 5.1----30.04- 73.8 70.3----
2024-07-22 09:06 amSSE 2.9 5.1----30.04- 73.8 70.5----
2024-07-22 09:00 amSSE 2.9 6.0----30.04+0.02 73.6 70.7----
2024-07-22 08:54 amSSE 4.1 5.1----30.04- 73.8 70.9----
2024-07-22 08:48 amSSE 4.1 6.0----30.04- 73.9 70.9----
2024-07-22 08:42 am SE 2.9 5.1----30.03- 73.8 71.1----
2024-07-22 08:36 amSSE 2.9 5.1----30.03- 73.8 71.4----
2024-07-22 08:30 amSSE 5.1 7.0----30.04- 73.8 71.6----
2024-07-22 08:24 amSSE 4.1 6.0----30.04- 73.9 71.6----
2024-07-22 08:18 am SE 4.1 6.0----30.03- 73.8 72.0----
2024-07-22 08:12 amSSE 5.1 6.0----30.03- 73.8 72.1----
2024-07-22 08:06 amSSE 5.1 7.0----30.03- 73.9 72.5----
2024-07-22 08:00 amSSE 5.1 7.0----30.03+0.02 73.9 72.5----
2024-07-22 07:54 am SE 4.1 6.0----30.03- 73.9 72.7----
2024-07-22 07:48 amSSE 2.9 5.1----30.03- 73.9 73.0----
2024-07-22 07:42 amSSE 5.1 7.0----30.03- 73.8 73.4----
2024-07-22 07:36 amSSE 5.1 7.0----30.03- 73.8 73.8----
2024-07-22 07:30 amSSE 4.1 6.0----30.03- 73.8 74.1----
2024-07-22 07:24 amSSE 2.9 5.1----30.03- 73.8 74.1----
2024-07-22 07:18 amSSE 2.9 5.1----30.03- 73.6 74.1----
2024-07-22 07:12 am SE 2.9 5.1----30.02- 73.6 74.1----
2024-07-22 07:06 am SE 2.9 4.1----30.02- 73.4 73.9----
2024-07-22 07:00 am SE 2.9 4.1----30.02+0.00 73.4 73.9----
2024-07-22 06:54 am SE 2.9 4.1----30.02- 73.4 73.9----
2024-07-22 06:48 am SE 2.9 5.1----30.02- 73.2 73.8----
2024-07-22 06:42 am SE 2.9 5.1----30.02- 73.2 73.8----
2024-07-22 06:36 am SE 2.9 4.1----30.02- 73.2 73.8----
2024-07-22 06:30 amESE 4.1 5.1----30.02- 73.2 73.8----
2024-07-22 06:24 amESE 2.9 5.1----30.02- 73.2 73.6----
2024-07-22 06:18 am SE 2.9 5.1----30.02- 73.0 73.6----
2024-07-22 06:12 am SE 2.9 5.1----30.02- 73.2 73.4----
2024-07-22 06:06 amSSE 2.9 5.1----30.02- 73.2 73.4----
2024-07-22 06:00 amSSE 2.9 5.1----30.02+0.00 73.0 73.2----
2024-07-22 05:54 amSSE 4.1 5.1----30.02- 73.0 73.2----
2024-07-22 05:48 amSSE 4.1 5.1----30.02- 72.9 73.2----
2024-07-22 05:42 amSSE 2.9 5.1----30.02- 72.9 73.2----
2024-07-22 05:36 amSSE 4.1 6.0----30.02- 72.7 73.0----
2024-07-22 05:30 am S 4.1 6.0----30.01- 72.7 73.0----
2024-07-22 05:24 am S 4.1 6.0----30.01- 72.5 73.0----
2024-07-22 05:18 am S 2.9 5.1----30.01- 72.5 73.0----
2024-07-22 05:12 am S 2.9 4.1----30.01- 72.7 72.9----
2024-07-22 05:06 amSSE 2.9 4.1----30.01- 72.7 72.9----
2024-07-22 05:00 amSSE 2.9 2.9----30.01-0.03 72.7 72.9----
2024-07-22 04:54 am S 2.9 4.1----30.01- 72.7 72.9----
2024-07-22 04:48 amSSE 1.9 2.9----30.01- 72.5 72.9----
2024-07-22 04:42 am- 0.0 1.0----30.01- 72.5 72.9----
2024-07-22 04:36 am SE 1.0 1.9----30.01- 72.5 72.9----
2024-07-22 04:30 am- 0.0 1.9----30.01- 72.5 72.9----
2024-07-22 04:24 am S 1.0 1.9----30.01- 72.7 72.9----
2024-07-22 04:18 am- 0.0 1.0----30.01- 72.7 72.9----
2024-07-22 04:12 am- 0.0 1.0----30.01- 72.9 72.9----
2024-07-22 04:06 am S 1.9 1.9----30.01- 72.9 72.7----
2024-07-22 04:00 am S 1.9 2.9----30.01-0.03 72.9 72.7----
2024-07-22 03:54 am- 0.0 1.9----30.01- 72.9 72.7----
2024-07-22 03:48 am S 1.9 2.9----30.01- 72.9 72.7----
2024-07-22 03:42 amSSW 1.9 2.9----30.01- 73.0 72.7----
2024-07-22 03:36 am S 2.9 4.1----30.02- 73.0 72.5----
2024-07-22 03:30 am S 2.9 4.1----30.02- 73.0 72.5----
2024-07-22 03:24 am S 4.1 5.1----30.02- 73.0 72.5----
2024-07-22 03:18 am S 5.1 6.0----30.02- 73.0 72.3----
2024-07-22 03:12 am S 4.1 6.0----30.02- 73.0 72.3----
2024-07-22 03:06 am S 4.1 5.1----30.02- 73.0 72.3----
2024-07-22 03:00 am S 4.1 5.1----30.02-0.03 73.0 72.3----
2024-07-22 02:54 am S 5.1 6.0----30.02- 73.0 72.3----
2024-07-22 02:48 am S 4.1 5.1----30.02- 73.0 72.3----
2024-07-22 02:42 am S 2.9 5.1----30.02- 73.0 72.3----
2024-07-22 02:36 am S 2.9 4.1----30.03- 72.9 72.3----
2024-07-22 02:30 am S 2.9 5.1----30.03- 72.9 72.3----
2024-07-22 02:24 am S 1.9 4.1----30.03- 72.7 72.3----
2024-07-22 02:18 am S 1.9 2.9----30.03- 72.7 72.3----
2024-07-22 02:12 am S 1.9 2.9----30.03- 72.9 72.3----
2024-07-22 02:06 amSSW 1.9 2.9----30.04- 72.9 72.3----
2024-07-22 02:00 amSSW 4.1 4.1----30.04+0.00 73.0 72.3----
2024-07-22 01:54 amSSW 4.1 5.1----30.04- 72.9 72.3----
2024-07-22 01:48 am S 4.1 5.1----30.04- 72.9 72.3----
2024-07-22 01:42 am S 5.1 6.0----30.04- 72.9 72.3----
2024-07-22 01:36 am S 4.1 5.1----30.04- 72.9 72.1----
2024-07-22 01:30 am S 4.1 5.1----30.04- 73.0 72.1----
2024-07-22 01:24 am S 2.9 5.1----30.04- 73.0 72.1----
2024-07-22 01:18 am S 2.9 5.1----30.05- 73.2 72.1----
2024-07-22 01:12 am S 4.1 5.1----30.05- 73.0 72.1----
2024-07-22 01:06 am S 4.1 5.1----30.05- 73.0 72.0----
2024-07-22 01:00 am S 4.1 6.0----30.04+0.01 73.0 72.0----
2024-07-22 12:54 am S 4.1 6.0----30.04- 73.0 72.0----
2024-07-22 12:48 am S 4.1 5.1----30.04- 73.0 72.0----
2024-07-22 12:42 am S 2.9 5.1----30.04- 73.0 71.8----
2024-07-22 12:36 am S 4.1 6.0----30.04- 73.0 71.8----
2024-07-22 12:30 am--------- 72.9 72.0----
2024-07-22 12:24 am--------- 73.0 72.0----
2024-07-22 12:18 am S 4.1 5.1----30.04- 73.2 72.0----
2024-07-22 12:12 am S 2.9 4.1----30.05- 73.2 72.1----
2024-07-22 12:06 am S 1.0 1.9----30.05- 73.2 72.1----
2024-07-22 12:00 am S 2.9 2.9----30.05+0.04 73.2 72.1----
2024-07-21 11:54 pmSSW 4.1 4.1----30.04- 73.2 72.1----
2024-07-21 11:48 pm S 4.1 4.1----30.04-- 72.1----
2024-07-21 11:42 pm S 1.9 2.9----30.04-- 72.1----
2024-07-21 11:36 pm S 1.9 2.9----30.04-- 72.3----
2024-07-21 11:30 pm S 2.9 4.1----30.04- 73.4 72.3----
2024-07-21 11:24 pm S 2.9 4.1----30.04- 73.4 72.3----
2024-07-21 11:18 pm S 4.1 5.1----30.04- 73.8 72.3----
2024-07-21 11:12 pm S 1.9 4.1----30.04- 73.9 72.3----
2024-07-21 11:06 pmSSE 2.9 5.1----30.04- 73.9 72.3----
2024-07-21 11:00 pmSSE 2.9 4.1----30.04+0.05 73.9 72.3----
2024-07-21 10:54 pmSSE 2.9 5.1----30.04- 73.9 72.3----
2024-07-21 10:48 pmSSE 2.9 5.1----30.04- 73.8 72.3----
2024-07-21 10:42 pm SE 4.1 5.1----30.04- 73.9 72.3----
2024-07-21 10:36 pmSSE 2.9 5.1----30.04- 73.9 72.3----
2024-07-21 10:30 pm S 4.1 6.0------ 73.9 72.3----
2024-07-21 10:24 pm S 4.1 5.1------ 73.8 72.3----
2024-07-21 10:18 pm S 4.1 5.1----30.04- 73.9 72.3----
2024-07-21 10:12 pm S 4.1 6.0----30.04- 73.9 72.3----
2024-07-21 10:06 pm S 5.1 6.0----30.04- 73.9 72.3----
2024-07-21 10:00 pm S 4.1 5.1----30.03+0.03 73.9 72.5----
2024-07-21 09:54 pm S 4.1 5.1----30.03- 73.8 72.5----
2024-07-21 09:48 pm S 5.1 5.1----30.03- 73.8 72.5----
2024-07-21 09:42 pm S 4.1 5.1----30.03- 73.8 72.5----
2024-07-21 09:36 pm S 5.1 6.0----30.03- 73.8 72.5----
2024-07-21 09:30 pm S 4.1 6.0----30.02- 73.8 72.5----
2024-07-21 09:24 pm S 5.1 6.0----30.02- 73.9 72.7----
2024-07-21 09:18 pm S 5.1 6.0----30.02-- 72.7----
2024-07-21 09:12 pm S 5.1 7.0----30.02-- 72.7----
2024-07-21 09:06 pm S 5.1 7.0----30.01-- 72.7----
2024-07-21 09:00 pm S 5.1 7.0----30.01+0.01- 72.7----
2024-07-21 08:54 pm S 7.0 8.0----30.01-- 72.9----
2024-07-21 08:48 pm S 6.0 8.0----30.01- 74.1 72.9----
2024-07-21 08:42 pm S 6.0 7.0----30.01- 74.3 73.0----
2024-07-21 08:36 pm S 5.1 6.0----30.01- 74.3 73.0----
2024-07-21 08:30 pm S 4.1 5.1----30.01- 74.3 73.0----
2024-07-21 08:24 pm S 5.1 6.0----30.00- 74.3 73.0----
2024-07-21 08:18 pmSSW 7.0 8.0----30.00-- 73.2----
2024-07-21 08:12 pmSSW 7.0 8.0----29.99-- 73.2----
2024-07-21 08:06 pmSSW 7.0 8.9----29.99-- 73.4----
2024-07-21 08:00 pm S 6.0 8.0----29.99-0.01 74.7 73.4----
2024-07-21 07:54 pm S 5.1 6.0----30.00- 75.0 73.2----
2024-07-21 07:48 pmSSW 7.0 8.9----29.99-------
2024-07-21 07:42 pmSSW 8.0 8.9----29.99-------
2024-07-21 07:36 pmSSW 8.0 8.9----30.00-------
2024-07-21 07:30 pmSSW 7.0 8.0----30.00- 75.0 73.8----
2024-07-21 07:24 pmSSW 7.0 8.0----30.00- 75.0 73.9----
2024-07-21 07:18 pmSSW 6.0 7.0----30.00- 75.2 73.9----
2024-07-21 07:12 pmSSW 4.1 5.1----30.00- 75.9 74.3----
2024-07-21 07:00 pmSSW 4.1 5.1----30.00+0.00- 74.3----
2024-07-21 06:54 pmSSW 5.1 6.0----30.00-- 74.3----
2024-07-21 06:48 pmSSW 5.1 7.0----30.00- 75.9 74.1----
2024-07-21 06:42 pm S 5.1 6.0----30.00- 76.1 74.1----
2024-07-21 06:36 pm S 5.1 6.0----30.00- 76.5 74.3----
2024-07-21 06:30 pm-------30.00- 76.3 74.5----
2024-07-21 06:24 pm-------30.00- 75.7 75.2----
2024-07-21 06:18 pm S 4.1 6.0----30.00- 76.6 75.7----
2024-07-21 06:12 pmSSW 5.1 6.0----30.00- 76.1 76.3----
2024-07-21 06:06 pmSSW 4.1 5.1----30.00- 76.6 76.8----
2024-07-21 06:00 pm S 4.1 6.0----30.00-0.03 76.3 77.0----
2024-07-21 05:54 pmSSW 4.1 5.1----30.00- 76.5 77.4----
2024-07-21 05:48 pm S 4.1 5.1----30.00- 77.0 77.5----
2024-07-21 05:42 pm S 4.1 5.1----30.00- 76.3 77.5----
2024-07-21 05:36 pmSSW 6.0 7.0----30.00- 76.1 77.4----
2024-07-21 05:30 pmSSW 5.1 7.0----30.00-- 77.4----
2024-07-21 05:24 pmSSW 5.1 6.0----30.00-- 77.2----
2024-07-21 05:18 pm-------30.00- 76.1 77.2----
2024-07-21 05:12 pm-------30.00- 76.3 77.2----
2024-07-21 05:06 pm-------30.00- 76.8 77.2----
2024-07-21 05:00 pm S 5.1 6.0----30.00-0.02 76.3 77.2----
2024-07-21 04:54 pm S 4.1 6.0----30.00- 77.5 77.0----
2024-07-21 04:48 pm S 4.1 6.0----30.00- 77.5 77.0----
2024-07-21 04:42 pm S 4.1 6.0----30.01- 77.2 76.8----
2024-07-21 04:36 pm S 4.1 7.0----30.01- 77.5 76.6----
2024-07-21 04:30 pm-------30.01- 77.5 76.6----
2024-07-21 04:24 pm-------30.01- 77.7 76.6----
2024-07-21 04:18 pm S 4.1 7.0----30.01- 77.4 76.5----
2024-07-21 04:12 pm S 4.1 7.0----30.01- 77.4 76.5----
2024-07-21 04:06 pm S 5.1 7.0----30.01- 76.8 76.1----
2024-07-21 04:00 pm-------30.01-0.02 76.6 76.1----
2024-07-21 03:54 pm-------30.01- 76.6 76.1----
2024-07-21 03:48 pm S 4.1 6.0----30.01- 77.0 75.7----
2024-07-21 03:42 pm S 4.1 5.1----30.01- 76.8 75.7----
2024-07-21 03:36 pm S 5.1 7.0----30.01- 77.2 75.6----
2024-07-21 03:30 pm S 4.1 6.0----30.01- 77.2 75.4----
2024-07-21 03:24 pm S 4.1 6.0----30.02- 76.6 75.4----
2024-07-21 03:18 pm S 4.1 6.0----30.02- 76.5 75.2----
2024-07-21 03:12 pm S 4.1 6.0----30.02- 76.5 75.0----
2024-07-21 03:06 pm S 4.1 5.1----30.02- 75.9 74.8----
2024-07-21 03:00 pm S 4.1 5.1----30.02-0.01 76.6 74.7----
2024-07-21 02:54 pm S 4.1 5.1----30.02- 76.5 74.5----
2024-07-21 02:48 pm S 4.1 5.1----30.02- 76.1 74.3----
2024-07-21 02:42 pmSSW 2.9 5.1----30.02- 77.0 74.3----
2024-07-21 02:36 pm S 4.1 5.1----30.02- 76.5 74.1----
2024-07-21 02:30 pm S 4.1 5.1------ 76.1 73.9----
2024-07-21 02:24 pm S 5.1 5.1------ 76.1 73.8----
2024-07-21 02:18 pm S 4.1 5.1----30.02- 76.3 73.8----
2024-07-21 02:12 pm S 4.1 5.1----30.02- 75.9 73.6----
2024-07-21 02:06 pmSSW 4.1 4.1----30.02- 75.6 73.4----
2024-07-21 02:00 pmSSW 4.1 4.1----30.02+0.00- 73.2----
2024-07-21 01:54 pmSSW 4.1 4.1----30.02-- 73.2----
2024-07-21 01:48 pm S 4.1 5.1----30.02-- 73.0----
2024-07-21 01:42 pmSSW 4.1 4.1----30.02-- 73.0----
2024-07-21 01:36 pm S 4.1 5.1----30.02-- 72.9----
2024-07-21 01:30 pm S 4.1 5.1----30.02- 75.6 72.7----
2024-07-21 01:24 pm S 4.1 5.1----30.02- 75.7 72.7----
2024-07-21 01:18 pm S 4.1 5.1----30.03- 75.6 72.5----
2024-07-21 01:12 pm S 4.1 5.1----30.03- 75.2 72.5----
2024-07-21 01:06 pmSSW 4.1 5.1----30.03- 75.4 72.3----
2024-07-21 01:00 pmSSW 4.1 5.1----30.03+0.03 75.0 72.3----
2024-07-21 12:54 pmSSW 4.1 5.1----30.03- 74.8 72.1----
2024-07-21 12:48 pmSSW 4.1 5.1----30.03- 74.7 72.1----
2024-07-21 12:42 pmSSW 5.1 5.1----30.03- 74.5 72.1----
2024-07-21 12:36 pmSSW 5.1 6.0----30.03- 74.5 72.0----
2024-07-21 12:30 pmSSW 5.1 6.0----30.03- 75.0 72.0----
2024-07-21 12:24 pm S 1.9 5.1----30.03- 77.2 72.0----
2024-07-21 12:18 pmSSE 2.9 5.1----30.03- 77.2 72.0----
2024-07-21 12:12 pmESE 4.1 6.0----30.03- 76.8 71.8----
2024-07-21 12:06 pmESE 2.9 6.0----30.03- 77.4 71.8----
2024-07-21 12:00 pm E 4.1 5.1----30.03+0.02 76.8 71.8----
2024-07-21 11:54 amESE 4.1 6.0----30.03- 76.5 71.8----
2024-07-21 11:48 am E 2.9 5.1----30.03- 76.3 71.8----
2024-07-21 11:42 am E 2.9 5.1----30.02- 76.8 71.6----
2024-07-21 11:36 amESE 4.1 5.1----30.02- 76.3 71.6----
2024-07-21 11:30 am E 2.9 5.1----30.03- 77.0 71.6----
2024-07-21 11:24 am E 2.9 5.1----30.02- 77.0 71.6----
2024-07-21 11:18 amESE 1.9 5.1----30.02- 77.2 71.4----
2024-07-21 11:12 amESE 5.1 7.0----30.02- 77.2 71.4----
2024-07-21 11:06 amENE 4.1 5.1----30.02- 76.3 71.4----
2024-07-21 11:00 amENE 4.1 6.0----30.02+0.02 75.9 71.4----
2024-07-21 10:54 am E 1.9 5.1----30.02- 76.3 71.4----